Location: High Point State Park
(41.2941°N, 74.6906°W)
Time: 09:39:29
(UTC-04:00)

HST - Visible Passes

Search period start: 01 September 2014 00:00
Search period end: 11 September 2014 00:00
Orbit: 547 x 551 km, 28.5° (Epoch: 31 August)

Date Brightness Start Highest point End Pass type
(mag) Time Alt. Az. Time Alt. Az. Time Alt. Az.
07 Sep 3.3 21:14:54 10° SSW 21:15:16 11° SSW 21:15:16 11° SSW visible
08 Sep 3.1 21:07:39 10° SSW 21:08:45 13° SSW 21:08:45 13° SSW visible
09 Sep 3.0 21:00:30 10° SSW 21:02:11 14° S 21:02:11 14° S visible
10 Sep 2.9 20:53:27 10° SW 20:55:34 14° S 20:55:34 14° S visible
